Granada, Spain

5:35 AM CEST en Octubre 16, 2018 (GMT +0200)
Granada

Tiempo Historia de LEGR - Abril, 2018

Change the Weather History Date:

Martes, Abril 17, 2018

  Actual Average Record
Temperature  
Temperatura media 58 ° F -  
Temperatura máxima 78 ° F 73 ° F 89 ° F (2014)
Temperatura mínima 39 ° F 46 ° F 32 ° F (2012)
Degree Days  
Grados día de calefacción 6    
Growing Degree Days 8 (Base 50)    
Moisture  
Punto de rocío 43 ° F    
Average Humidity 62    
Maximum Humidity 100    
Minimum Humidity 14    
Precipitación  
Precipitación 0.00 pul - - ()
Presión al nivel del mar  
Presión al nivel del mar 30.21 pul    
Viento  
Velocidad del viento 2 mph ()    
Velocidad máxima del viento 10 mph    
Max Gust Speed -    
Visibilidad 12.7 Millas    
Eventos      
Averages and records for this station are not official NWS values.
T = Trace of Precipitation, MM = Missing Value Source: Averaged Metar Reports

Daily Weather History Graph

Daily Weather History Graph

Search for Another Location

Airport or City:

Astronomía

Apr. 17, 2018 Salida Puesta
Hora real 7:38 AM CEST 8:51 PM CEST
Crepúsculo civil 7:11 AM CEST 9:18 PM CEST
Crepúsculo náutico 6:39 AM CEST 9:51 PM CEST
Crepúsculo astronómico 6:05 AM CEST 10:24 PM CEST
Luna 8:48 AM CEST (4/17) 10:31 PM CEST (4/17)
Horas de luz 14h 07m
Horas de luz
13h 13m
Luna nueva, 2% of the Moon is Illuminated
Abr 17
Luna nueva
Abr 22
Cuarto creciente
Abr 30
Luna llena
May 8
Cuarto menguante
May 15
Nueva

Hourly Weather History & Observations

Hora (CEST) Temp. Vientos helados Punto de rocío Humedad Presión Visibilidad Wind Dir Velocidad del viento Velocidad de ráfagas Precip Eventos Condiciones
12:00 AM 50.0 ° F - 44.6 ° F 82% 30.21 pul 6.2 mi Variable 1.2 mph - N/A   Desconocido
12:30 AM 50.0 ° F - 42.8 ° F 76% 30.21 pul 6.2 mi ONO 1.2 mph - N/A   Desconocido
1:00 AM 48 ° F - 44 ° F 83% 30.23 pul 19 mi OSO 3.5 mph - -  
1:00 AM 48.2 ° F - 42.8 ° F 82% 30.21 pul 6.2 mi OSO 2.3 mph - N/A   Desconocido
1:30 AM 46.4 ° F 45.2 ° F 42.8 ° F 87% 30.21 pul 6.2 mi SO 3.5 mph - N/A   Desconocido
2:00 AM 46 ° F - 43 ° F 86% 30.24 pul 17 mi SO 2.3 mph - -  
2:00 AM 46.4 ° F - 42.8 ° F 87% 30.21 pul 6.2 mi Variable 2.3 mph - N/A   Desconocido
2:30 AM 44.6 ° F - 42.8 ° F 93% 30.21 pul 6.2 mi Sin viento Sin viento - N/A   Desconocido
3:00 AM 45 ° F - 43 ° F 90% 30.25 pul 14 mi OSO 2.3 mph - -  
3:00 AM 44.6 ° F - 42.8 ° F 93% 30.21 pul 6.2 mi OSO 2.3 mph - N/A   Desconocido
3:30 AM 44.6 ° F - 41.0 ° F 87% 30.21 pul 6.2 mi Variable 2.3 mph - N/A   Desconocido
4:00 AM 43 ° F - 42 ° F 93% 30.26 pul 16 mi Sin viento Sin viento - -  
4:00 AM 42.8 ° F - 41.0 ° F 93% 30.21 pul 6.2 mi Sin viento Sin viento - N/A   Desconocido
4:30 AM 42.8 ° F - 41.0 ° F 93% 30.21 pul 6.2 mi SSE 1.2 mph - N/A   Desconocido
5:00 AM 42 ° F - 41 ° F 93% 30.27 pul 10 mi Sin viento Sin viento - -  
5:00 AM 42.8 ° F - 41.0 ° F 93% 30.21 pul 6.2 mi Sin viento Sin viento - N/A   Desconocido
5:30 AM 41.0 ° F - 39.2 ° F 93% 30.21 pul 6.2 mi Oeste 1.2 mph - N/A   Desconocido
6:00 AM 41 ° F - 40 ° F 94% 30.27 pul 12 mi SO 2.3 mph - -  
6:00 AM 41.0 ° F - 39.2 ° F 93% 30.21 pul - SO 2.3 mph - N/A   Despejado
6:30 AM 41.0 ° F - 39.2 ° F 93% 30.21 pul - Sin viento Sin viento - N/A   Despejado
7:00 AM 41.0 ° F - 39.2 ° F 93% 30.21 pul - Sin viento Sin viento - N/A   Despejado
7:30 AM 41.0 ° F - 39.2 ° F 93% 30.21 pul - Sin viento Sin viento - N/A   Despejado
8:00 AM 41 ° F - 39 ° F 90% 30.30 pul 16 mi Sin viento Sin viento - -   Despejado
8:00 AM 39.2 ° F - 39.2 ° F 100% 30.24 pul - Sin viento Sin viento - N/A   Despejado
8:30 AM 41.0 ° F - 39.2 ° F 93% 30.24 pul - Sin viento Sin viento - N/A   Despejado
9:00 AM 47 ° F - 44 ° F 86% 30.29 pul 16 mi Sin viento Sin viento - -   Despejado
9:00 AM 46.4 ° F - 44.6 ° F 93% 30.24 pul - Sin viento Sin viento - N/A   Despejado
9:30 AM 50.0 ° F - 44.6 ° F 82% 30.27 pul - Sin viento Sin viento - N/A   Despejado
10:00 AM 54 ° F - 46 ° F 66% 30.26 pul 11 mi Sin viento Sin viento - -  
10:00 AM 53.6 ° F - 44.6 ° F 72% 30.27 pul - Sin viento Sin viento - N/A   Despejado
10:30 AM 55.4 ° F - 44.6 ° F 67% 30.24 pul - Sin viento Sin viento - N/A   Despejado
11:00 AM 60 ° F - 47 ° F 51% 30.24 pul 19 mi Sin viento Sin viento - -   Despejado
11:00 AM 59.0 ° F - 46.4 ° F 63% 30.27 pul - Sin viento Sin viento - N/A   Despejado
11:30 AM 59.0 ° F - 42.8 ° F 55% 30.27 pul - Variable 1.2 mph - N/A   Despejado
12:00 PM 63 ° F - 47 ° F 45% 30.22 pul 19 mi Sin viento Sin viento - -  
12:00 PM 60.8 ° F - 44.6 ° F 55% 30.24 pul - Variable 1.2 mph - N/A   Despejado
12:30 PM 64.4 ° F - 46.4 ° F 52% 30.24 pul - Sin viento Sin viento - N/A   Despejado
1:00 PM 68 ° F - 47 ° F 35% 30.19 pul 19 mi Sin viento Sin viento - -  
1:00 PM 66.2 ° F - 42.8 ° F 43% 30.24 pul - Sin viento Sin viento - N/A   Despejado
1:30 PM 66.2 ° F - 46.4 ° F 49% 30.24 pul - Variable 1.2 mph - N/A   Despejado
2:00 PM 71 ° F - 47 ° F 31% 30.16 pul 25 mi ONO 1.2 mph - -   Despejado
2:00 PM 68.0 ° F - 44.6 ° F 43% 30.24 pul - Variable 1.2 mph - N/A   Despejado
2:30 PM 69.8 ° F - 39.2 ° F 33% 30.21 pul - Variable 1.2 mph - N/A   Despejado
3:00 PM 74 ° F - 39 ° F 18% 30.14 pul 19 mi NNE 2.3 mph - -   Despejado
3:00 PM 71.6 ° F - 44.6 ° F 38% 30.21 pul - Variable 1.2 mph - N/A   Despejado
3:30 PM 73.4 ° F - 35.6 ° F 25% 30.21 pul - Variable 1.2 mph - N/A   Despejado
4:00 PM 76 ° F - 42 ° F 19% 30.12 pul 19 mi Sin viento Sin viento - -  
4:00 PM 73.4 ° F - 46.4 ° F 38% 30.21 pul - Sin viento Sin viento - N/A   Despejado
4:30 PM 75.2 ° F - 42.8 ° F 31% 30.18 pul - Variable 1.2 mph - N/A   Despejado
5:00 PM 77 ° F - 40 ° F 16% 30.10 pul 19 mi NO 2.3 mph - -   Despejado
5:00 PM 75.2 ° F - 33.8 ° F 22% 30.18 pul - Variable 2.3 mph - N/A   Despejado
5:30 PM 75.2 ° F - 42.8 ° F 31% 30.18 pul - Variable 1.2 mph - N/A   Despejado
6:00 PM 77 ° F - 38 ° F 14% 30.09 pul 19 mi Sin viento Sin viento - -  
6:00 PM 77.0 ° F - 41.0 ° F 28% 30.18 pul - Sin viento Sin viento - N/A   Despejado
6:30 PM 75.2 ° F - 39.2 ° F 27% 30.18 pul - Variable 2.3 mph - N/A   Despejado
7:00 PM 75 ° F - 48 ° F 28% 30.09 pul 19 mi SSE 9.2 mph - -  
7:00 PM 73.4 ° F - 46.4 ° F 38% 30.18 pul - SSE 8.1 mph - N/A   Despejado
7:30 PM 73.4 ° F - 46.4 ° F 38% 30.18 pul - Sur 8.1 mph - N/A   Despejado
8:00 PM 71 ° F - 48 ° F 33% 30.11 pul 19 mi SSE 10.4 mph - -   Despejado
8:30 PM 68.0 ° F - 46.4 ° F 46% 30.18 pul - Sur 8.1 mph - N/A   Despejado
9:00 PM 66 ° F - 47 ° F 39% 30.14 pul 19 mi Sur 9.2 mph - -  
9:00 PM 64.4 ° F - 46.4 ° F 52% 30.18 pul - Sur 8.1 mph - N/A   Despejado
9:30 PM 62.6 ° F - 46.4 ° F 55% 30.18 pul - Sur 9.2 mph - N/A   Despejado
10:00 PM 63 ° F - 47 ° F 45% 30.18 pul 19 mi SO 2.3 mph - -  
10:00 PM 62.6 ° F - 46.4 ° F 55% 30.21 pul - Variable 2.3 mph - N/A   Despejado
10:30 PM 60.8 ° F - 46.4 ° F 59% 30.21 pul - Sin viento Sin viento - N/A   Despejado
11:00 PM 59.0 ° F - 46.4 ° F 63% 30.24 pul - Variable 2.3 mph - N/A   Despejado
11:30 PM 57.2 ° F - 46.4 ° F 67% 30.24 pul 6.2 mi Sin viento Sin viento - N/A   Desconocido